This demonstration page uses our WeatherBlox Daily Observations layout. Learn more.

41.55636, -103.73856

Hourly Observations for September 19, 2017

Temp ( °F °C ) Dew Point ( °F °C ) Humidity (%) Winds ( mph kmh ) Pressure ( in mb ) Visibility ( mi km ) Precip ( " mm )
12:53 am 00:53 Clear 61 16.1 46 7.8 58 58 ENE 10 17 29.61 1003 10 16.0934 0 0
1:53 am 01:53 Clear 61 16.1 47 8.3 60 60 E 7 11 29.6 1002 10 16.0934 0 0
2:53 am 02:53 Clear 65 18.3 46 7.8 51 51 SSE 20 31 29.56 1001 10 16.0934 0 0
3:53 am 03:53 Clear 57 13.9 48 8.9 72 72 E 9 15 29.57 1001 10 16.0934 0 0
4:53 am 04:53 Clear 55 12.8 48 8.9 77 77 E 7 11 29.55 1001 10 16.0934 0 0
5:53 am 05:53 Clear 53 11.7 48 8.9 83 83 E 8 13 29.55 1001 10 16.0934 0 0
6:53 am 06:53 Sunny 54 12.2 50 10 87 87 ESE 7 11 29.56 1001 10 16.0934 0 0
7:53 am 07:53 Sunny 54 12.2 51 10.6 90 90 SE 8 13 29.56 1001 10 16.0934 0 0
8:53 am 08:53 Sunny 55 12.8 52 11.1 90 90 ESE 6 9 29.56 1001 9 14.48406 0 0
9:53 am 09:53 Sunny 57 13.9 52 11.1 83 83 E 6 9 29.54 1001 10 16.0934 0 0
10:53 am 10:53 Sunny 61 16.1 52 11.1 72 72 ESE 7 11 29.52 1000 10 16.0934 0 0
11:53 am 11:53 Sunny 66 18.9 52 11.1 61 61 ESE 8 13 29.48 998 10 16.0934 0 0
12:53 pm 12:53 Sunny 74 23.3 50 10 43 43 ESE 7 11 29.44 997 10 16.0934 0 0
1:53 pm 13:53 Sunny 78 25.6 48 8.9 35 35 ESE 10 17 29.4 996 10 16.0934 0 0
2:53 pm 14:53 Mostly Sunny 79 26.1 50 10 36 36 WNW 7 11 29.42 996 10 16.0934 0 0
3:53 pm 15:53 Sunny 69 20.6 40 4.4 35 35 NW 35 56 29.55 1001 10 16.0934 0 0
4:53 pm 16:53 Sunny 65 18.3 36 2.2 34 34 NW 28 44 29.61 1003 10 16.0934 0 0
5:53 pm 17:53 Sunny 61 16.1 34 1.1 36 36 WNW 29 46 29.66 1005 10 16.0934 0 0.0254
6:53 pm 18:53 Sunny 58 14.4 32 0 38 38 WNW 17 28 29.72 1007 10 16.0934 0 0
7:53 pm 19:53 Clear 54 12.2 33 0.6 45 45 WNW 14 22 29.73 1007 10 16.0934 0 0
8:53 pm 20:53 Clear 53 11.7 33 0.6 47 47 WNW 16 26 29.72 1007 10 16.0934 0 0
9:53 pm 21:53 Clear 52 11.1 36 2.2 55 55 NW 9 15 29.72 1007 10 16.0934 0 0
10:53 pm 22:53 Clear 54 12.2 33 0.6 45 45 WNW 17 28 29.74 1007 10 16.0934 0 0
11:53 pm 23:53 Mostly Clear 55 12.8 33 0.6 44 44 WNW 14 22 29.74 1007 10 16.0934 0 0

Powered by AerisWeather